星链-4267 (STARLINK-4267 )

导读 | 星芒AI

STARLINK-4267 是 SpaceX 星链计划中的一颗低轨通信卫星,属于第 18 批星链卫星组(Batch 18)。它于 2022 年 11 月 19 日由猎鹰 9 号火箭从佛罗里达州卡纳维拉尔角发射升空。该卫星运行在约 550 公里的高度,旨在为全球用户提供高速互联网服务。作为星链星座的一部分,STARLINK-4267 采用先进推进系统和激光通信技术,支持星座间高速数据传输,提升网络性能与覆盖范围。

基本信息
目录编号:
52864
目录名称:
STARLINK-4267
国际标识:
2022-062AL
轨道中心:
EARTH
卫星名称:
星链-4267
卫星全名:
星链-4267 (STARLINK-4267 )
卫星状态:
在轨 (已飞行1237 天)
发射日期:
2022-06-17 UTC
国别 :
美国 (US)
星等 :
--
轨道信息
数据来源 国际轨道数据
星历时间: 2025-11-05T01:47:28+0800
9小时前
查看轨道信息
半长轴: 6917.962km
偏心率: 0.0001582
轨道倾角: 53.218°
近地点辐角 88.745°
升交点赤经 225.036°
平近点角 271.372°
近地点: 538.732km
远地点: 540.922km
周期: 95.439分钟
每日圈数: 15.088136
详细信息
固有亮度:
5
最大亮度:
2.5
卫星平台:
Starlink v1.5
覆盖范围:
全球
运营商:
太空探索技术公司
运营商所在国:
美国
制造商(研发单位):
太空探索技术公司
制造商所在国:
美国
使用方式:
暂无
卫星简介
星链(Starlink)计划是由太空探索技术公司(SpaceX)提出的一个巨型低轨卫星互联网星座项目,计划在2019年至2024年间在太空搭建由约1.2万颗卫星组成的“星链”网络,其中1584颗将部署在地球上空550千米处的近地轨道,并从2020年开始工作。该卫星仍在工作。
2D轨道图
3D轨道图
轨道高度分析图
轨道倾角分析图
轨道综合分析图
查看轨道综合分析图